Location: Newark
(50.4348°N, 30.5552°E)
Time: 05:14:54
(UTC+00:00)

Envisat - Pass Details

Date: 15 December 2019
Orbit: 764 x 766 km, 98.1° (Epoch: 20 January)

Event Time Altitude Azimuth Distance (km) Brightness Sun altitude
Rises 04:51:26 0° 15° (NNE) 3,246 6.1 -9.0°
Reaches altitude 10° 04:53:45 10° 16° (NNE) 2,315 5.4 -8.6°
Maximum altitude 04:58:52 78° 103° (ESE) 787 3.2 -7.9°
Drops below altitude 10° 05:03:57 10° 191° (S) 2,297 5.7 -7.2°
Sets 05:06:14 0° 192° (SSW) 3,218 6.5 -6.9°
